Location: Unspecified
(0.0000°N, 0.0000°E)
Time: 23:03:52
(UTC+00:00)

Envisat - Pass Details

Date: 16 January 2022
Orbit: 764 x 766 km, 98.2° (Epoch: 27 January)

Event Time Altitude Azimuth Distance (km) Brightness Sun altitude
Rises 04:03:52 0° 24° (NNE) 3,213 6.2 -29.2°
Reaches altitude 10° 04:06:15 10° 31° (NNE) 2,290 5.5 -28.6°
Maximum altitude 04:11:02 43° 102° (ESE) 1,057 4.1 -27.5°
Drops below altitude 10° 04:15:49 10° 173° (S) 2,300 5.8 -26.4°
Sets 04:18:13 0° 180° (S) 3,228 6.5 -25.9°
